24hr Temperature Data

Temp.
(°C)
Wind Chill
(°C)
Dew Point
(°C)
Solar Hours
(hh:mm)
Solar Radiation
(w/m2)
Min
6.2 6.6 1.1 00:00 0.0
Max
14.3 14.2 10.5 00:00 58.0
Range
8.1 7.6 9.4 n/a 58
Mode
13.8 12.9 9.9 00:00 4.0
Median
11.4 11.2 7.8 00:00 4.0
Mean
11.3 11 7.2 n/a 9.3
Std. Dev
2.4 2.2 3 n/a 11.3
Temp.
(°C)
Wind Chill
(°C)
Dew Point
(°C)
Solar Hours
(hh:mm)
Solar Radiation
(w/m2)
20/11 11:29 13.9 12.8 9.7 00:00 28.0
20/11 11:28 13.9 12.8 9.7 00:00 28.0
20/11 11:27 13.9 12.8 9.9 00:00 26.0
20/11 11:26 13.9 12.8 9.9 00:00 22.0
20/11 11:25 13.9 12.8 9.9 00:00 20.0
20/11 11:24 13.9 12.8 9.9 00:00 20.0
20/11 11:23 13.9 12.8 9.9 00:00 20.0
20/11 11:22 13.9 12.8 9.9 00:00 22.0
20/11 11:21 13.9 12.8 9.7 00:00 22.0
20/11 11:20 13.9 12.8 9.7 00:00 26.0
20/11 11:19 13.9 12.8 9.7 00:00 30.0
20/11 11:18 13.9 12.9 9.7 00:00 32.0
20/11 11:17 13.9 12.9 9.7 00:00 32.0
20/11 11:16 13.9 12.9 9.7 00:00 30.0
20/11 11:15 13.9 13 9.7 00:00 30.0
20/11 11:14 13.9 13 9.7 00:00 32.0
20/11 11:13 13.9 13 9.7 00:00 34.0
20/11 11:12 13.9 13 9.9 00:00 32.0
20/11 11:11 13.8 13 9.8 00:00 34.0
20/11 11:10 13.8 13 9.8 00:00 32.0
20/11 11:09 13.8 13 9.8 00:00 30.0
20/11 11:08 13.8 13 9.8 00:00 30.0
20/11 11:07 13.8 13 9.8 00:00 32.0
20/11 11:06 13.8 13 9.8 00:00 30.0
20/11 11:05 13.8 13 10 00:00 28.0
20/11 11:04 13.8 13 10 00:00 30.0
20/11 11:03 13.8 12.9 10 00:00 32.0
20/11 11:02 13.8 12.8 10 00:00 30.0
20/11 11:01 13.8 12.8 10 00:00 28.0
20/11 11:00 13.8 12.8 10 00:00 22.0
20/11 10:59 13.8 12.8 10 00:00 20.0
20/11 10:58 13.8 12.8 10 00:00 18.0
20/11 10:57 13.8 12.7 10 00:00 20.0
20/11 10:56 13.8 12.7 9.8 00:00 18.0
20/11 10:55 13.8 12.7 9.8 00:00 18.0
20/11 10:54 13.9 12.9 9.9 00:00 18.0
20/11 10:53 13.9 12.9 9.9 00:00 18.0
20/11 10:52 13.9 12.9 9.9 00:00 18.0
20/11 10:51 13.9 12.9 9.9 00:00 18.0
20/11 10:50 13.9 13 9.9 00:00 20.0
20/11 10:49 13.9 13 9.9 00:00 24.0
20/11 10:48 13.9 13 9.9 00:00 24.0
20/11 10:47 13.9 13 9.9 00:00 20.0
20/11 10:46 13.9 13 9.9 00:00 20.0
20/11 10:45 13.9 13 9.9 00:00 20.0
20/11 10:44 13.9 13 9.9 00:00 20.0
20/11 10:43 13.9 13 9.9 00:00 20.0
20/11 10:42 13.9 12.9 9.9 00:00 20.0
20/11 10:41 13.9 12.9 9.9 00:00 20.0
20/11 10:40 13.9 12.9 9.9 00:00 18.0
20/11 10:39 13.9 12.9 9.9 00:00 18.0
20/11 10:38 13.9 12.8 9.9 00:00 18.0
20/11 10:37 13.9 12.8 9.9 00:00 16.0
20/11 10:36 13.9 12.8 9.9 00:00 16.0
20/11 10:35 13.9 12.9 9.9 00:00 18.0
20/11 10:33 13.9 12.9 9.9 00:00 18.0
20/11 10:32 13.9 12.9 9.9 00:00 18.0
20/11 10:29 13.9 12.9 9.9 00:00 14.0
20/11 10:28 13.9 13 9.9 00:00 14.0
20/11 10:27 13.8 12.9 9.8 00:00 14.0
20/11 10:26 13.8 13 9.8 00:00 14.0
20/11 10:25 13.8 12.9 9.8 00:00 12.0
20/11 10:24 13.8 12.8 9.8 00:00 14.0
20/11 10:23 13.8 12.8 9.8 00:00 14.0
20/11 10:22 13.8 12.8 9.8 00:00 14.0
20/11 10:21 13.8 12.8 9.8 00:00 14.0
20/11 10:20 13.8 12.8 9.8 00:00 14.0
20/11 10:19 13.8 12.7 9.8 00:00 14.0
20/11 10:10 13.9 12.8 9.9 00:00 18.0
20/11 10:09 13.9 12.9 9.9 00:00 18.0
20/11 10:07 13.8 12.8 9.8 00:00 20.0
20/11 10:05 13.8 12.8 9.8 00:00 20.0
20/11 10:03 13.9 12.9 9.9 00:00 20.0
20/11 10:00 13.9 13 9.9 00:00 22.0
20/11 09:59 13.9 13 9.9 00:00 22.0
20/11 09:58 13.9 13 9.9 00:00 22.0
20/11 09:57 13.9 13 9.9 00:00 22.0
20/11 09:56 13.9 13 9.9 00:00 22.0
20/11 09:55 13.9 13 9.9 00:00 22.0
20/11 09:54 13.9 13.1 9.9 00:00 22.0
20/11 09:53 13.9 13.1 9.9 00:00 22.0
20/11 09:52 13.9 13.1 9.9 00:00 20.0
20/11 09:51 13.9 13.1 9.9 00:00 20.0
20/11 09:50 13.9 13.1 9.9 00:00 20.0
20/11 09:49 13.9 13.2 9.9 00:00 20.0
20/11 09:48 13.9 13.3 9.9 00:00 20.0
20/11 09:47 13.9 13.3 9.9 00:00 20.0
20/11 09:46 13.9 13.3 9.9 00:00 20.0
20/11 09:45 13.9 13.4 9.9 00:00 20.0
20/11 09:44 13.9 13.4 9.9 00:00 20.0
20/11 09:43 13.9 13.3 9.9 00:00 20.0
20/11 09:42 13.8 13.1 9.8 00:00 18.0
20/11 09:41 13.8 13.2 10 00:00 18.0
20/11 09:40 13.8 13.2 10 00:00 18.0
20/11 09:39 13.8 13.2 10 00:00 16.0
20/11 09:38 13.9 13.3 10.1 00:00 16.0
20/11 09:37 13.9 13.2 10.1 00:00 16.0
20/11 09:36 13.9 13.2 10.1 00:00 16.0
20/11 09:35 13.9 13.2 10.1 00:00 16.0
20/11 09:34 13.9 13.1 10.1 00:00 16.0
20/11 09:33 13.9 13.2 10.1 00:00 16.0
20/11 09:32 13.8 13.1 10 00:00 16.0
20/11 09:31 13.8 13.2 10 00:00 16.0
20/11 09:30 13.9 13.3 10.1 00:00 18.0
20/11 09:29 13.9 13.3 10.1 00:00 18.0
20/11 09:28 13.9 13.2 10.1 00:00 16.0
20/11 09:27 13.9 13.2 10.1 00:00 16.0
20/11 09:26 13.9 13.2 10.1 00:00 16.0
20/11 09:25 13.9 13.2 10.1 00:00 16.0
20/11 09:24 13.8 13.1 10 00:00 16.0
20/11 09:23 13.8 13.1 10 00:00 14.0
20/11 09:22 13.8 13.1 10 00:00 14.0
20/11 09:21 13.8 13.1 10 00:00 14.0
20/11 09:20 13.8 13 10 00:00 14.0
20/11 09:19 13.8 12.9 10 00:00 14.0
20/11 09:18 13.8 12.9 10 00:00 14.0
20/11 09:17 13.8 12.9 10 00:00 14.0
20/11 09:16 13.8 12.9 10 00:00 14.0
20/11 09:15 13.8 12.9 10 00:00 14.0
20/11 09:14 13.8 12.9 10 00:00 14.0
20/11 09:13 13.8 12.9 10 00:00 14.0
20/11 09:12 13.8 12.9 10 00:00 12.0
20/11 09:11 13.8 12.9 10 00:00 12.0
20/11 09:10 13.9 13 10.1 00:00 12.0
20/11 09:09 13.8 12.8 10 00:00 12.0
20/11 09:08 13.8 12.8 10 00:00 12.0
20/11 09:07 13.8 12.9 10 00:00 12.0
20/11 09:06 13.8 13 10 00:00 12.0
20/11 09:05 13.8 12.9 10 00:00 12.0
20/11 09:04 13.8 12.9 10 00:00 12.0
20/11 09:03 13.8 12.9 10 00:00 12.0
20/11 09:02 13.8 12.9 10 00:00 12.0
20/11 09:01 13.8 12.8 10 00:00 12.0
20/11 09:00 13.8 12.9 10 00:00 12.0
20/11 08:59 13.8 12.9 10 00:00 14.0
20/11 08:58 13.8 12.9 10 00:00 14.0
20/11 08:57 13.8 12.9 10 00:00 14.0
20/11 08:56 13.8 12.9 10 00:00 14.0
20/11 08:55 13.8 12.9 10 00:00 14.0
20/11 08:54 13.7 12.8 10.1 00:00 14.0
20/11 08:53 13.7 12.8 10.1 00:00 12.0
20/11 08:52 13.7 12.8 10.1 00:00 12.0
20/11 08:51 13.7 12.8 10.1 00:00 12.0
20/11 08:50 13.7 12.8 10.1 00:00 12.0
20/11 08:49 13.7 12.9 10.1 00:00 12.0
20/11 08:48 13.7 12.9 10.1 00:00 12.0
20/11 08:47 13.7 12.9 10.1 00:00 12.0
20/11 08:46 13.7 12.9 10.1 00:00 12.0
20/11 08:45 13.7 12.9 10.1 00:00 10.0
20/11 08:44 13.7 12.9 10.1 00:00 10.0
20/11 08:43 13.7 12.9 10.1 00:00 10.0
20/11 08:42 13.7 12.9 10.1 00:00 10.0
20/11 08:41 13.7 13 10.1 00:00 10.0
20/11 08:40 13.7 13 10.1 00:00 10.0
20/11 08:39 13.6 12.9 10 00:00 10.0
20/11 08:38 13.6 12.9 10 00:00 8.0
20/11 08:37 13.6 12.8 10.2 00:00 10.0
20/11 08:36 13.6 12.7 10.2 00:00 10.0
20/11 08:35 13.6 12.7 10.2 00:00 10.0
20/11 08:34 13.6 12.7 10.2 00:00 8.0
20/11 08:33 13.6 12.7 10.2 00:00 8.0
20/11 08:32 13.6 12.7 10.2 00:00 8.0
20/11 08:31 13.6 12.7 10.2 00:00 8.0
20/11 08:30 13.6 12.8 10.2 00:00 8.0
20/11 08:29 13.6 12.8 10.2 00:00 8.0
20/11 08:28 13.6 12.9 10.4 00:00 6.0
20/11 08:27 13.6 12.9 10.4 00:00 6.0
20/11 08:26 13.5 12.8 10.3 00:00 6.0
20/11 08:25 13.5 12.9 10.3 00:00 6.0
20/11 08:24 13.5 13 10.5 00:00 6.0
20/11 08:23 13.5 13 10.5 00:00 6.0
20/11 08:22 13.4 12.9 10.4 00:00 6.0
20/11 08:21 13.4 13 10.4 00:00 6.0
20/11 08:20 13.5 13.2 10.5 00:00 4.0
20/11 08:19 13.5 13.2 10.5 00:00 4.0
20/11 08:18 13.5 13.2 10.5 00:00 4.0
20/11 08:17 13.5 13.1 10.5 00:00 4.0
20/11 08:16 13.6 13.3 10.4 00:00 4.0
20/11 08:15 13.6 13.2 10.4 00:00 4.0
20/11 08:14 13.6 13.2 10.4 00:00 4.0
20/11 08:13 13.6 13.2 10.4 00:00 4.0
20/11 08:12 13.6 13.1 10.4 00:00 0.0
20/11 08:11 13.6 13 10.4 00:00 0.0
20/11 08:10 13.6 13 10.2 00:00 0.0
20/11 08:09 13.6 12.9 10.2 00:00 0.0
20/11 08:08 13.7 13 10.3 00:00 0.0
20/11 08:07 13.7 13 10.3 00:00 0.0
20/11 08:06 13.7 13 10.3 00:00 0.0
20/11 08:05 13.7 12.9 10.3 00:00 0.0
20/11 08:04 13.7 12.9 10.3 00:00 0.0
20/11 08:03 13.7 12.9 10.3 00:00 0.0
20/11 08:02 13.7 12.9 10.3 00:00 0.0
20/11 08:01 13.7 12.9 10.3 00:00 0.0
20/11 08:00 13.7 12.9 10.3 00:00 0.0
20/11 07:59 13.7 12.9 10.3 00:00 0.0
20/11 07:58 13.7 12.9 10.3 00:00 0.0
20/11 07:57 13.7 12.9 10.1 00:00 0.0
20/11 07:56 13.8 13 10.2 00:00 0.0
20/11 07:55 13.8 13 10.2 00:00 0.0
20/11 07:54 13.8 13 10.2 00:00 0.0
20/11 07:53 13.8 13 10.2 00:00 0.0
20/11 07:52 13.8 13.1 10.2 00:00 0.0
20/11 07:51 13.8 13.1 10.2 00:00 0.0
20/11 07:50 13.8 13.1 10.2 00:00 0.0
20/11 07:49 13.8 13.1 10.2 00:00 0.0
20/11 07:48 13.8 13.1 10.2 00:00 0.0
20/11 07:47 13.8 13.1 10.2 00:00 0.0
20/11 07:46 13.8 13.1 10.2 00:00 0.0
20/11 07:45 13.8 13.1 10.2 00:00 0.0
20/11 07:44 13.8 13.1 10.2 00:00 0.0
20/11 07:43 13.8 13.1 10.2 00:00 0.0
20/11 07:42 13.8 13.1 10.2 00:00 0.0
20/11 07:41 13.8 13.1 10.2 00:00 4.0
20/11 07:40 13.8 13.1 10.2 00:00 4.0
20/11 07:39 13.8 13.1 10.2 00:00 0.0
20/11 07:38 13.8 13.1 10.2 00:00 0.0
20/11 07:37 13.8 13.1 10.2 00:00 4.0
20/11 07:36 13.8 13.1 10.4 00:00 4.0
20/11 07:35 13.7 13 10.3 00:00 4.0
20/11 07:34 13.7 13 10.3 00:00 0.0
20/11 07:33 13.7 13 10.3 00:00 4.0
20/11 07:32 13.7 13.1 10.3 00:00 4.0
20/11 07:31 13.7 13.1 10.3 00:00 4.0
20/11 07:30 13.7 13 10.3 00:00 4.0
20/11 07:29 13.7 13.1 10.3 00:00 4.0
20/11 07:28 13.8 13.2 10.4 00:00 4.0
20/11 07:27 13.8 13.2 10.4 00:00 4.0
20/11 07:26 13.8 13.2 10.4 00:00 4.0
20/11 07:25 13.8 13.2 10.4 00:00 4.0
20/11 07:24 13.8 13.2 10.4 00:00 4.0
20/11 07:23 13.8 13.2 10.4 00:00 0.0
20/11 07:22 13.8 13.3 10.2 00:00 4.0
20/11 07:21 13.8 13.2 10.2 00:00 4.0
20/11 07:20 13.8 13.3 10.2 00:00 4.0
20/11 07:19 13.8 13.3 10.2 00:00 4.0
20/11 07:18 13.8 13.3 10.2 00:00 4.0
20/11 07:17 13.8 13.4 10.2 00:00 4.0
20/11 07:16 13.8 13.4 10.2 00:00 4.0
20/11 07:15 13.8 13.4 10.2 00:00 4.0
20/11 07:14 13.8 13.4 10.2 00:00 4.0
20/11 07:13 13.8 13.4 10.2 00:00 4.0
20/11 07:12 13.8 13.4 10.2 00:00 4.0
20/11 07:11 13.8 13.4 10.2 00:00 4.0
20/11 07:10 13.8 13.4 10.4 00:00 4.0
20/11 07:09 13.8 13.4 10.4 00:00 4.0
20/11 07:08 13.8 13.4 10.4 00:00 4.0
20/11 07:07 13.8 13.4 10.4 00:00 4.0
20/11 07:06 13.8 13.3 10.4 00:00 0.0
20/11 07:05 13.8 13.3 10.2 00:00 4.0
20/11 07:04 13.9 13.4 10.3 00:00 4.0
20/11 07:03 13.8 13.3 10.2 00:00 4.0
20/11 07:02 13.9 13.5 10.3 00:00 4.0
20/11 07:01 13.8 13.3 10.4 00:00 4.0
20/11 07:00 13.8 13.4 10.2 00:00 4.0
20/11 06:59 13.9 13.5 10.3 00:00 4.0
20/11 06:58 13.8 13.4 10.4 00:00 4.0
20/11 06:57 13.9 13.5 10.3 00:00 4.0
20/11 06:56 13.9 13.5 10.3 00:00 4.0
20/11 06:55 13.9 13.6 10.5 00:00 0.0
20/11 06:54 13.9 13.7 10.5 00:00 4.0
20/11 06:53 13.9 13.7 10.5 00:00 0.0
20/11 06:52 13.8 13.6 10.4 00:00 4.0
20/11 06:51 13.8 13.6 10.4 00:00 0.0
20/11 06:50 13.8 13.7 10.4 00:00 4.0
20/11 06:49 13.8 13.7 10.4 00:00 4.0
20/11 06:48 13.8 13.7 10.4 00:00 4.0
20/11 06:47 13.8 13.8 10.4 00:00 4.0
20/11 06:46 13.8 13.8 10.4 00:00 4.0
20/11 06:45 13.8 13.9 10.4 00:00 4.0
20/11 06:44 13.8 13.9 10.4 00:00 4.0
20/11 06:43 13.8 13.8 10.4 00:00 4.0
20/11 06:42 13.8 13.8 10.4 00:00 4.0
20/11 06:41 13.8 13.9 10.4 00:00 0.0
20/11 06:40 13.8 13.9 10.4 00:00 4.0
20/11 06:39 13.8 13.8 10.4 00:00 4.0
20/11 06:38 13.9 14 10.5 00:00 4.0
20/11 06:37 13.9 14.1 10.5 00:00 4.0
20/11 06:36 13.9 14.2 10.5 00:00 4.0
20/11 06:35 13.9 14.1 10.5 00:00 4.0
20/11 06:34 13.8 14 10.4 00:00 4.0
20/11 06:33 13.8 14 10.4 00:00 0.0
20/11 06:32 13.8 14 10.4 00:00 4.0
20/11 06:31 13.8 14.1 10.4 00:00 4.0
20/11 06:30 13.8 14 10.4 00:00 0.0
20/11 06:29 13.8 14 10.4 00:00 4.0
20/11 06:28 13.8 14 10.4 00:00 4.0
20/11 06:27 13.8 14 10.4 00:00 4.0
20/11 06:26 13.8 14.1 10.4 00:00 4.0
20/11 06:25 13.8 14 10.4 00:00 0.0
20/11 06:24 13.8 14 10.4 00:00 4.0
20/11 06:23 13.8 14 10.4 00:00 0.0
20/11 06:22 13.8 14.1 10.4 00:00 4.0
20/11 06:21 13.8 14.1 10.4 00:00 4.0
20/11 06:20 13.8 14.1 10.4 00:00 4.0
20/11 06:19 13.8 14.1 10.4 00:00 4.0
20/11 06:18 13.8 14.2 10.4 00:00 4.0
20/11 06:17 13.8 14.2 10.4 00:00 4.0
20/11 06:16 13.8 14.2 10.4 00:00 4.0
20/11 06:15 13.8 14.2 10.4 00:00 4.0
20/11 06:14 13.8 14.1 10.4 00:00 4.0
20/11 06:13 13.7 14 10.3 00:00 4.0
20/11 06:12 13.8 14.1 10.4 00:00 4.0
20/11 06:11 13.7 13.8 10.3 00:00 4.0
20/11 06:10 13.7 13.7 10.3 00:00 0.0
20/11 06:09 13.7 13.7 10.3 00:00 4.0
20/11 06:08 13.7 13.7 10.3 00:00 4.0
20/11 06:07 13.7 13.6 10.3 00:00 4.0
20/11 06:06 13.7 13.6 10.3 00:00 4.0
20/11 06:05 13.8 13.7 10.4 00:00 4.0
20/11 06:04 13.8 13.6 10.4 00:00 4.0
20/11 06:03 13.8 13.6 10.4 00:00 4.0
20/11 06:02 13.8 13.5 10.4 00:00 4.0
20/11 06:01 13.8 13.5 10.4 00:00 4.0
20/11 06:00 13.8 13.5 10.4 00:00 4.0
20/11 05:59 13.7 13.5 10.3 00:00 0.0
20/11 05:58 13.7 13.5 10.3 00:00 0.0
20/11 05:57 13.7 13.5 10.3 00:00 4.0
20/11 05:56 13.8 13.6 10.4 00:00 4.0
20/11 05:55 13.7 13.5 10.3 00:00 4.0
20/11 05:54 13.8 13.6 10.4 00:00 4.0
20/11 05:53 13.8 13.5 10.4 00:00 4.0
20/11 05:52 13.7 13.4 10.3 00:00 4.0
20/11 05:51 13.7 13.5 10.3 00:00 4.0
20/11 05:50 13.7 13.6 10.3 00:00 4.0
20/11 05:49 13.7 13.6 10.3 00:00 4.0
20/11 05:48 13.7 13.5 10.3 00:00 4.0
20/11 05:47 13.7 13.6 10.3 00:00 0.0
20/11 05:46 13.7 13.6 10.3 00:00 4.0
20/11 05:45 13.7 13.6 10.3 00:00 4.0
20/11 05:44 13.7 13.6 10.3 00:00 4.0
20/11 05:43 13.7 13.6 10.3 00:00 4.0
20/11 05:42 13.7 13.7 10.3 00:00 4.0
20/11 05:41 13.7 13.6 10.3 00:00 4.0
20/11 05:40 13.7 13.6 10.3 00:00 4.0
20/11 05:39 13.7 13.5 10.3 00:00 4.0
20/11 05:38 13.7 13.4 10.3 00:00 4.0
20/11 05:37 13.7 13.5 10.1 00:00 4.0
20/11 05:36 13.7 13.5 10.1 00:00 0.0
20/11 05:35 13.7 13.5 10.1 00:00 4.0
20/11 05:34 13.7 13.4 10.1 00:00 4.0
20/11 05:33 13.8 13.4 10.2 00:00 4.0
20/11 05:32 13.8 13.4 10.2 00:00 4.0
20/11 05:31 13.8 13.4 10.2 00:00 0.0
20/11 05:30 13.8 13.3 10.2 00:00 4.0
20/11 05:29 13.8 13.4 10.2 00:00 4.0
20/11 05:28 13.8 13.3 10.2 00:00 4.0
20/11 05:27 13.8 13.3 10.2 00:00 4.0
20/11 05:26 13.8 13.3 10.2 00:00 4.0
20/11 05:25 13.9 13.3 10.1 00:00 4.0
20/11 05:24 13.9 13.3 10.1 00:00 4.0
20/11 05:23 13.9 13.3 10.1 00:00 4.0
20/11 05:22 13.9 13.3 10.1 00:00 4.0
20/11 05:21 13.9 13.3 10.1 00:00 4.0
20/11 05:20 14.0 13.4 10.2 00:00 4.0
20/11 05:19 14.0 13.4 10.2 00:00 0.0
20/11 05:18 14.1 13.5 10.1 00:00 4.0
20/11 05:17 14.1 13.5 10.1 00:00 4.0
20/11 05:16 14.1 13.5 10.1 00:00 4.0
20/11 05:15 14.1 13.5 10.1 00:00 4.0
20/11 05:14 14.1 13.5 9.9 00:00 4.0
20/11 05:13 14.2 13.7 10 00:00 4.0
20/11 05:12 14.2 13.7 10 00:00 4.0
20/11 05:11 14.2 13.7 10 00:00 4.0
20/11 05:10 14.2 13.7 10 00:00 4.0
20/11 05:09 14.2 13.7 10 00:00 4.0
20/11 05:08 14.2 13.8 10 00:00 0.0
20/11 05:07 14.2 13.8 10 00:00 4.0
20/11 05:06 14.3 13.9 9.9 00:00 4.0
20/11 05:05 14.3 14 9.9 00:00 4.0
20/11 05:04 14.3 14 9.9 00:00 4.0
20/11 05:03 14.3 14 9.9 00:00 4.0
20/11 05:02 14.3 14 9.9 00:00 4.0
20/11 05:01 14.3 13.9 9.9 00:00 4.0
20/11 05:00 14.3 13.9 9.9 00:00 4.0
20/11 04:59 14.3 14 9.9 00:00 4.0
20/11 04:58 14.3 13.9 9.9 00:00 4.0
20/11 04:57 14.3 13.9 9.9 00:00 4.0
20/11 04:56 14.3 13.9 9.9 00:00 4.0
20/11 04:55 14.2 13.8 9.8 00:00 0.0
20/11 04:54 14.3 13.9 9.9 00:00 0.0
20/11 04:53 14.3 13.9 10.1 00:00 0.0
20/11 04:52 14.3 13.9 10.1 00:00 4.0
20/11 04:51 14.3 13.8 10.1 00:00 4.0
20/11 04:50 14.3 13.8 10.1 00:00 4.0
20/11 04:49 14.3 13.8 10.1 00:00 4.0
20/11 04:48 14.3 13.7 10.1 00:00 4.0
20/11 04:47 14.3 13.7 10.1 00:00 4.0
20/11 04:46 14.3 13.7 10.1 00:00 4.0
20/11 04:45 14.3 13.7 10.1 00:00 4.0
20/11 04:44 14.2 13.6 10 00:00 4.0
20/11 04:43 14.3 13.7 10.1 00:00 0.0
20/11 04:41 14.2 13.6 10 00:00 4.0
20/11 04:40 14.2 13.6 10 00:00 4.0
20/11 04:39 14.2 13.6 10 00:00 4.0
20/11 04:38 14.2 13.6 10.2 00:00 4.0
20/11 04:36 14.1 13.7 10.1 00:00 4.0
20/11 04:35 14.1 13.7 10.1 00:00 4.0
20/11 04:34 14.1 13.7 10.1 00:00 4.0
20/11 04:32 14.0 13.6 10 00:00 4.0
20/11 04:30 14.0 13.6 10 00:00 4.0
20/11 04:28 14.0 13.6 10 00:00 4.0
20/11 04:27 14.0 13.6 10 00:00 4.0
20/11 04:26 14.0 13.7 10 00:00 4.0
20/11 04:25 14.1 13.8 10.1 00:00 4.0
20/11 04:24 14.1 13.8 10.1 00:00 4.0
20/11 04:23 14.1 13.8 10.1 00:00 4.0
20/11 04:21 14.1 13.9 10.1 00:00 4.0
20/11 04:20 14.1 13.9 10.1 00:00 4.0
20/11 04:19 14.1 13.8 10.1 00:00 4.0
20/11 04:18 14.0 13.7 10 00:00 4.0
20/11 04:17 14.0 13.7 10 00:00 4.0
20/11 04:16 14.0 13.7 10 00:00 4.0
20/11 04:15 14.0 13.6 10 00:00 0.0
20/11 04:14 14.1 13.6 10.1 00:00 4.0
20/11 04:13 14.1 13.6 9.9 00:00 4.0
20/11 04:12 14.1 13.6 9.9 00:00 4.0
20/11 04:11 14.1 13.6 9.9 00:00 4.0
20/11 04:10 14.1 13.5 9.9 00:00 4.0
20/11 04:09 14.1 13.5 9.9 00:00 4.0
20/11 04:08 14.1 13.6 9.9 00:00 4.0
20/11 04:07 14.1 13.6 9.9 00:00 4.0
20/11 04:06 14.1 13.6 9.9 00:00 4.0
20/11 04:05 14.1 13.6 9.9 00:00 4.0
20/11 04:04 14.1 13.7 9.9 00:00 4.0
20/11 04:03 14.0 13.6 9.8 00:00 4.0
20/11 04:02 14.0 13.6 9.8 00:00 4.0
20/11 04:01 14.0 13.6 9.8 00:00 4.0
20/11 04:00 14.0 13.5 9.8 00:00 0.0
20/11 03:59 14.0 13.6 9.8 00:00 4.0
20/11 03:58 14.0 13.6 9.8 00:00 4.0
20/11 03:57 14.0 13.6 9.8 00:00 4.0
20/11 03:56 14.0 13.6 9.8 00:00 4.0
20/11 03:55 14.0 13.6 9.8 00:00 4.0
20/11 03:54 14.0 13.6 9.8 00:00 4.0
20/11 03:53 14.0 13.6 9.8 00:00 4.0
20/11 03:52 14.0 13.6 9.8 00:00 4.0
20/11 03:51 14.0 13.7 9.8 00:00 4.0
20/11 03:50 14.0 13.7 9.8 00:00 4.0
20/11 03:49 13.9 13.7 9.9 00:00 0.0
20/11 03:48 13.9 13.8 9.9 00:00 4.0
20/11 03:47 13.9 13.8 9.9 00:00 4.0
20/11 03:46 13.9 13.8 9.9 00:00 4.0
20/11 03:45 13.9 13.8 9.9 00:00 4.0
20/11 03:44 13.9 13.8 9.9 00:00 4.0
20/11 03:43 13.9 13.9 9.7 00:00 0.0
20/11 03:42 13.9 13.9 9.7 00:00 4.0
20/11 03:41 13.9 13.8 9.7 00:00 4.0
20/11 03:40 14.0 13.9 9.8 00:00 4.0
20/11 03:38 14.0 13.9 9.8 00:00 4.0
20/11 03:37 14.0 13.8 9.8 00:00 4.0
20/11 03:36 14.0 13.8 9.8 00:00 4.0
20/11 03:35 14.0 13.8 9.8 00:00 4.0
20/11 03:34 14.0 13.8 9.8 00:00 4.0
20/11 03:33 14.0 13.8 9.8 00:00 4.0
20/11 03:32 14.0 13.8 9.8 00:00 4.0
20/11 03:31 14.0 13.8 9.8 00:00 4.0
20/11 03:30 14.0 13.8 9.8 00:00 4.0
20/11 03:29 14.0 13.7 9.8 00:00 4.0
20/11 03:28 14.0 13.7 9.8 00:00 4.0
20/11 03:27 14.0 13.8 9.8 00:00 4.0
20/11 03:26 14.0 13.8 9.8 00:00 4.0
20/11 03:25 14.0 13.8 9.8 00:00 4.0
20/11 03:24 14.0 13.9 9.8 00:00 4.0
20/11 03:23 14.0 13.9 9.8 00:00 4.0
20/11 03:22 13.9 13.8 9.7 00:00 4.0
20/11 03:21 13.9 13.8 9.7 00:00 0.0
20/11 03:20 13.9 13.8 9.7 00:00 4.0
20/11 03:16 13.9 13.8 9.9 00:00 4.0
20/11 03:15 13.9 13.8 9.9 00:00 4.0
20/11 03:13 13.9 13.7 9.9 00:00 4.0
20/11 03:12 13.9 13.6 9.9 00:00 4.0
20/11 03:11 13.9 13.5 9.9 00:00 4.0
20/11 03:10 13.9 13.6 9.9 00:00 4.0
20/11 03:09 13.9 13.6 9.9 00:00 4.0
20/11 03:08 13.9 13.5 9.9 00:00 0.0
20/11 03:07 13.9 13.5 9.9 00:00 0.0
20/11 03:06 13.9 13.5 9.9 00:00 0.0
20/11 03:05 13.9 13.5 9.9 00:00 4.0
20/11 03:04 13.9 13.5 9.9 00:00 4.0
20/11 03:03 13.9 13.5 9.7 00:00 4.0
20/11 03:02 13.9 13.5 9.9 00:00 4.0
20/11 03:01 13.9 13.6 9.9 00:00 4.0
20/11 03:00 13.8 13.6 9.8 00:00 4.0
20/11 02:59 13.8 13.6 9.8 00:00 0.0
20/11 02:58 13.8 13.5 9.8 00:00 4.0
20/11 02:57 13.8 13.5 9.8 00:00 0.0
20/11 02:56 13.8 13.6 9.8 00:00 0.0
20/11 02:55 13.8 13.5 9.8 00:00 4.0
20/11 02:54 13.8 13.5 9.8 00:00 4.0
20/11 02:53 13.8 13.4 9.8 00:00 4.0
20/11 02:51 13.8 13.5 9.8 00:00 0.0
20/11 02:49 13.8 13.6 9.8 00:00 4.0
20/11 02:48 13.8 13.5 9.8 00:00 4.0
20/11 02:47 13.7 13.5 9.7 00:00 4.0
20/11 02:46 13.7 13.5 9.7 00:00 4.0
20/11 02:45 13.7 13.5 9.7 00:00 0.0
20/11 02:44 13.7 13.5 9.7 00:00 4.0
20/11 02:43 13.6 13.5 9.6 00:00 4.0
20/11 02:42 13.6 13.5 9.6 00:00 4.0
20/11 02:41 13.6 13.5 9.6 00:00 4.0
20/11 02:40 13.6 13.5 9.6 00:00 4.0
20/11 02:39 13.6 13.5 9.6 00:00 4.0
20/11 02:38 13.5 13.4 9.5 00:00 4.0
20/11 02:37 13.5 13.4 9.5 00:00 4.0
20/11 02:36 13.5 13.5 9.5 00:00 0.0
20/11 02:35 13.5 13.5 9.5 00:00 4.0
20/11 02:34 13.5 13.4 9.5 00:00 4.0
20/11 02:33 13.5 13.3 9.5 00:00 4.0
20/11 02:32 13.5 13.3 9.5 00:00 4.0
20/11 02:31 13.5 13.3 9.5 00:00 4.0
20/11 02:30 13.5 13.3 9.5 00:00 4.0
20/11 02:29 13.5 13.3 9.5 00:00 0.0
20/11 02:28 13.5 13.2 9.3 00:00 0.0
20/11 02:27 13.5 13.2 9.3 00:00 4.0
20/11 02:26 13.6 13.3 9.4 00:00 4.0
20/11 02:25 13.6 13.3 9.4 00:00 0.0
20/11 02:23 13.6 13.2 9.4 00:00 4.0
20/11 02:22 13.6 13.2 9.4 00:00 4.0
20/11 02:21 13.6 13.2 9.4 00:00 4.0
20/11 02:20 13.6 13.2 9.4 00:00 4.0
20/11 02:19 13.6 13.2 9.4 00:00 4.0
20/11 02:18 13.6 13.2 9.4 00:00 4.0
20/11 02:17 13.6 13.2 9.4 00:00 4.0
20/11 02:16 13.6 13.2 9.4 00:00 4.0
20/11 02:15 13.6 13.2 9.2 00:00 4.0
20/11 02:14 13.6 13.2 9.2 00:00 4.0
20/11 02:13 13.6 13.1 9.4 00:00 0.0
20/11 02:12 13.6 13.1 9.4 00:00 4.0
20/11 02:10 13.5 13.1 9.3 00:00 4.0
20/11 02:09 13.4 13 9.2 00:00 4.0
20/11 02:08 13.4 13 9.2 00:00 4.0
20/11 02:07 13.4 12.9 9.2 00:00 4.0
20/11 02:06 13.4 12.9 9.2 00:00 4.0
20/11 02:05 13.4 12.9 9.2 00:00 4.0
20/11 02:04 13.4 12.8 9.2 00:00 4.0
20/11 02:03 13.4 12.8 9.2 00:00 4.0
20/11 02:02 13.4 12.9 9.2 00:00 0.0
20/11 02:01 13.4 12.9 9.2 00:00 4.0
20/11 02:00 13.4 12.9 9.2 00:00 4.0
20/11 01:59 13.4 12.8 9.2 00:00 4.0
20/11 01:58 13.4 12.8 9.2 00:00 4.0
20/11 01:57 13.4 12.9 9.2 00:00 4.0
20/11 01:56 13.4 12.8 9.2 00:00 4.0
20/11 01:55 13.4 12.8 9 00:00 4.0
20/11 01:54 13.5 12.9 9.1 00:00 4.0
20/11 01:53 13.4 12.8 9 00:00 0.0
20/11 01:52 13.4 12.8 9 00:00 4.0
20/11 01:51 13.4 12.7 9 00:00 4.0
20/11 01:49 13.3 12.5 9.1 00:00 4.0
20/11 01:46 13.4 12.6 9.2 00:00 4.0
20/11 01:45 13.4 12.6 9.2 00:00 0.0
20/11 01:43 13.4 12.6 9 00:00 4.0
20/11 01:42 13.4 12.6 9 00:00 4.0
20/11 01:39 13.4 12.5 9 00:00 4.0
20/11 01:37 13.4 12.4 9 00:00 4.0
20/11 01:35 13.4 12.4 9 00:00 4.0
20/11 01:34 13.4 12.4 9 00:00 0.0
20/11 01:33 13.4 12.4 9 00:00 4.0
20/11 01:32 13.4 12.4 9 00:00 0.0
20/11 01:31 13.4 12.5 9 00:00 4.0
20/11 01:30 13.4 12.5 9 00:00 0.0
20/11 01:29 13.4 12.6 9 00:00 4.0
20/11 01:28 13.4 12.6 9 00:00 4.0
20/11 01:27 13.4 12.7 9 00:00 4.0
20/11 01:25 13.4 12.7 9 00:00 4.0
20/11 01:24 13.3 12.6 8.9 00:00 0.0
20/11 01:23 13.2 12.4 9 00:00 4.0
20/11 01:22 13.2 12.4 9 00:00 4.0
20/11 01:21 13.2 12.4 9 00:00 0.0
20/11 01:19 13.2 12.4 9 00:00 0.0
20/11 01:18 13.2 12.3 9 00:00 4.0
20/11 01:17 13.2 12.3 9 00:00 0.0
20/11 01:16 13.2 12.3 9 00:00 4.0
20/11 01:15 13.2 12.3 9 00:00 4.0
20/11 01:13 13.1 12.2 8.9 00:00 4.0
20/11 01:12 13.1 12.3 8.9 00:00 4.0
20/11 01:11 13.1 12.4 8.9 00:00 4.0
20/11 01:10 13.0 12.3 9 00:00 4.0
20/11 01:09 13.0 12.4 9 00:00 0.0
20/11 01:08 13.0 12.4 9 00:00 4.0
20/11 01:07 13.0 12.5 9 00:00 4.0
20/11 01:06 12.9 12.4 8.9 00:00 4.0
20/11 01:05 12.8 12.2 9 00:00 4.0
20/11 01:04 12.7 12.1 8.9 00:00 0.0
20/11 01:03 12.7 12.1 8.9 00:00 4.0
20/11 01:01 12.7 12 8.9 00:00 4.0
20/11 00:59 12.7 11.9 8.9 00:00 4.0
20/11 00:58 12.8 12 8.8 00:00 4.0
20/11 00:57 12.8 12 8.8 00:00 4.0
20/11 00:55 12.8 11.9 8.8 00:00 4.0
20/11 00:53 12.7 11.9 8.7 00:00 4.0
20/11 00:51 12.7 12 8.7 00:00 4.0
20/11 00:49 12.8 12.1 8.8 00:00 4.0
20/11 00:48 12.8 12 8.8 00:00 4.0
20/11 00:47 12.8 12 8.8 00:00 4.0
20/11 00:46 12.8 12 8.8 00:00 4.0
20/11 00:45 12.8 12 8.6 00:00 4.0
20/11 00:44 12.8 11.9 8.6 00:00 4.0
20/11 00:43 12.9 12 8.7 00:00 4.0
20/11 00:42 12.8 11.8 8.6 00:00 0.0
20/11 00:41 12.9 11.9 8.7 00:00 0.0
20/11 00:40 12.9 11.9 8.7 00:00 4.0
20/11 00:39 12.9 11.8 8.7 00:00 4.0
20/11 00:38 12.9 11.8 8.7 00:00 0.0
20/11 00:37 12.9 11.8 8.5 00:00 0.0
20/11 00:36 12.9 11.8 8.5 00:00 4.0
20/11 00:35 12.9 11.9 8.5 00:00 4.0
20/11 00:34 12.9 11.9 8.7 00:00 4.0
20/11 00:33 12.9 11.9 8.5 00:00 4.0
20/11 00:32 12.9 12 8.7 00:00 4.0
20/11 00:31 12.8 11.8 8.6 00:00 4.0
20/11 00:29 12.8 11.9 8.6 00:00 4.0
20/11 00:28 12.8 11.9 8.6 00:00 4.0
20/11 00:27 12.8 11.9 8.6 00:00 4.0
20/11 00:26 12.8 11.9 8.6 00:00 0.0
20/11 00:25 12.8 11.9 8.6 00:00 4.0
20/11 00:24 12.8 11.9 8.6 00:00 4.0
20/11 00:23 12.8 11.9 8.6 00:00 4.0
20/11 00:22 12.8 11.9 8.6 00:00 4.0
20/11 00:21 12.8 11.9 8.4 00:00 4.0
20/11 00:20 12.8 11.9 8.4 00:00 4.0
20/11 00:19 12.8 11.9 8.4 00:00 4.0
20/11 00:18 12.8 11.9 8.4 00:00 4.0
20/11 00:17 12.7 11.8 8.5 00:00 0.0
20/11 00:16 12.7 11.8 8.5 00:00 4.0
20/11 00:15 12.7 11.8 8.5 00:00 0.0
20/11 00:14 12.6 11.8 8.4 00:00 4.0
20/11 00:13 12.6 11.8 8.4 00:00 4.0
20/11 00:12 12.6 11.8 8.4 00:00 4.0
20/11 00:11 12.6 11.8 8.4 00:00 4.0
20/11 00:10 12.5 11.6 8.5 00:00 4.0
20/11 00:09 12.5 11.7 8.5 00:00 4.0
20/11 00:08 12.5 11.7 8.5 00:00 4.0
20/11 00:07 12.5 11.7 8.5 00:00 4.0
20/11 00:05 12.5 11.7 8.5 00:00 4.0
20/11 00:03 12.4 11.6 8.4 00:00 4.0
20/11 00:02 12.4 11.6 8.4 00:00 4.0
20/11 00:01 12.4 11.5 8.4 00:00 4.0
20/11 00:00 12.4 11.5 8.4 00:00 4.0
19/11 23:59 12.4 11.5 8.4 00:00 4.0
19/11 23:58 12.4 11.5 8.4 00:00 0.0
19/11 23:57 12.4 11.5 8.4 00:00 4.0
19/11 23:55 12.5 11.6 8.5 00:00 0.0
19/11 23:54 12.5 11.6 8.3 00:00 4.0
19/11 23:53 12.5 11.7 8.3 00:00 4.0
19/11 23:52 12.5 11.7 8.3 00:00 4.0
19/11 23:51 12.6 11.9 8.4 00:00 4.0
19/11 23:50 12.5 11.8 8.3 00:00 4.0
19/11 23:49 12.5 11.8 8.3 00:00 4.0
19/11 23:48 12.5 11.9 8.3 00:00 4.0
19/11 23:47 12.5 12 8.3 00:00 0.0
19/11 23:46 12.4 12 8.2 00:00 4.0
19/11 23:45 12.4 12.1 8.2 00:00 0.0
19/11 23:44 12.3 12.1 8.1 00:00 4.0
19/11 23:43 12.3 12.2 8.1 00:00 0.0
19/11 23:42 12.3 12.2 8.1 00:00 4.0
19/11 23:41 12.3 12.2 8.1 00:00 4.0
19/11 23:40 12.2 12.1 8.2 00:00 4.0
19/11 23:39 12.2 12.1 8.2 00:00 4.0
19/11 23:38 12.1 12.1 8.1 00:00 4.0
19/11 23:37 12.0 12.1 8.2 00:00 4.0
19/11 23:36 12.0 12.2 8.2 00:00 4.0
19/11 23:35 11.9 12.1 8.1 00:00 4.0
19/11 23:34 11.9 12 8.1 00:00 0.0
19/11 23:33 11.9 11.9 8.3 00:00 0.0
19/11 23:32 11.8 11.8 8.2 00:00 0.0
19/11 23:31 11.7 11.7 8.1 00:00 4.0
19/11 23:30 11.7 11.7 8.3 00:00 0.0
19/11 23:29 11.6 11.6 8.2 00:00 4.0
19/11 23:28 11.6 11.5 8.2 00:00 0.0
19/11 23:27 11.5 11.4 8.3 00:00 4.0
19/11 23:26 11.5 11.4 8.3 00:00 4.0
19/11 23:25 11.4 11.2 8.2 00:00 0.0
19/11 23:24 11.4 11.1 8.2 00:00 0.0
19/11 23:23 11.4 11.1 8.2 00:00 4.0
19/11 23:22 11.4 11.1 8.2 00:00 0.0
19/11 23:21 11.5 11.3 8.1 00:00 0.0
19/11 23:20 11.5 11.2 8.1 00:00 0.0
19/11 23:19 11.5 11.2 8.1 00:00 4.0
19/11 23:18 11.5 11.3 8.1 00:00 0.0
19/11 23:17 11.5 11.3 8.1 00:00 0.0
19/11 23:16 11.5 11.3 8.1 00:00 4.0
19/11 23:15 11.5 11.3 8.1 00:00 0.0
19/11 23:14 11.5 11.3 8.1 00:00 4.0
19/11 23:13 11.5 11.4 8.1 00:00 0.0
19/11 23:12 11.4 11.3 8 00:00 4.0
19/11 23:11 11.4 11.3 8 00:00 4.0
19/11 23:10 11.4 11.3 8 00:00 4.0
19/11 23:09 11.4 11.3 8 00:00 4.0
19/11 23:08 11.4 11.4 8 00:00 4.0
19/11 23:07 11.4 11.5 8 00:00 0.0
19/11 23:06 11.4 11.5 8 00:00 4.0
19/11 23:05 11.4 11.4 8 00:00 4.0
19/11 23:04 11.3 11.3 7.9 00:00 4.0
19/11 23:03 11.3 11.2 7.9 00:00 4.0
19/11 23:02 11.3 11.3 7.9 00:00 0.0
19/11 23:01 11.3 11.3 7.9 00:00 4.0
19/11 23:00 11.3 11.3 7.9 00:00 4.0
19/11 22:59 11.4 11.3 8 00:00 4.0
19/11 22:58 11.4 11.3 8 00:00 4.0
19/11 22:57 11.4 11.3 8 00:00 4.0
19/11 22:56 11.4 11.3 7.9 00:00 4.0
19/11 22:55 11.4 11.2 7.9 00:00 0.0
19/11 22:54 11.4 11.2 7.9 00:00 0.0
19/11 22:53 11.4 11.2 8 00:00 4.0
19/11 22:52 11.3 11.1 7.9 00:00 0.0
19/11 22:51 11.4 11.2 7.9 00:00 0.0
19/11 22:50 11.4 11.2 7.9 00:00 4.0
19/11 22:49 11.4 11.1 7.9 00:00 0.0
19/11 22:48 11.4 11.1 7.9 00:00 4.0
19/11 22:47 11.4 11 7.9 00:00 4.0
19/11 22:45 11.5 11.1 7.8 00:00 4.0
19/11 22:44 11.5 11.1 7.8 00:00 4.0
19/11 22:43 11.5 11.1 7.8 00:00 0.0
19/11 22:42 11.6 11.3 7.9 00:00 4.0
19/11 22:41 11.6 11.2 7.9 00:00 0.0
19/11 22:40 11.6 11.2 7.9 00:00 4.0
19/11 22:39 11.5 11.1 7.8 00:00 0.0
19/11 22:38 11.5 11.1 7.8 00:00 4.0
19/11 22:36 11.5 11.1 7.8 00:00 4.0
19/11 22:34 11.5 11.1 7.8 00:00 4.0
19/11 22:32 11.5 10.9 7.8 00:00 4.0
19/11 22:30 11.4 10.9 7.7 00:00 0.0
19/11 22:28 11.3 10.7 7.8 00:00 0.0
19/11 22:27 11.2 10.6 7.7 00:00 4.0
19/11 22:26 11.2 10.7 7.7 00:00 4.0
19/11 22:25 11.1 10.6 7.7 00:00 4.0
19/11 22:24 11.1 10.6 7.7 00:00 4.0
19/11 22:23 11.0 10.4 7.8 00:00 0.0
19/11 22:22 10.9 10.3 7.7 00:00 0.0
19/11 22:21 10.9 10.4 7.9 00:00 4.0
19/11 22:20 10.8 10.3 7.8 00:00 0.0
19/11 22:19 10.8 10.3 7.8 00:00 4.0
19/11 22:18 10.8 10.2 7.8 00:00 0.0
19/11 22:17 10.8 10.3 7.8 00:00 4.0
19/11 22:16 10.8 10.2 7.8 00:00 4.0
19/11 22:15 10.8 10.2 7.8 00:00 4.0
19/11 22:14 10.8 10.2 7.8 00:00 4.0
19/11 22:12 10.9 10.3 7.9 00:00 4.0
19/11 22:11 10.9 10.3 7.9 00:00 0.0
19/11 22:10 10.9 10.3 7.7 00:00 4.0
19/11 22:09 10.9 10.4 7.7 00:00 0.0
19/11 22:08 10.9 10.4 7.7 00:00 0.0
19/11 22:06 10.9 10.5 7.7 00:00 4.0
19/11 22:05 10.9 10.5 7.7 00:00 4.0
19/11 22:04 11.0 10.6 7.8 00:00 0.0
19/11 22:02 11.0 10.5 7.8 00:00 4.0
19/11 22:00 10.9 10.4 7.7 00:00 0.0
19/11 21:59 10.9 10.4 7.7 00:00 4.0
19/11 21:58 10.9 10.4 7.7 00:00 0.0
19/11 21:57 10.9 10.4 7.7 00:00 0.0
19/11 21:56 10.9 10.5 7.7 00:00 4.0
19/11 21:55 10.9 10.4 7.7 00:00 4.0
19/11 21:54 10.9 10.4 7.5 00:00 4.0
19/11 21:53 10.9 10.3 7.5 00:00 4.0
19/11 21:52 10.9 10.3 7.5 00:00 4.0
19/11 21:51 10.9 10.4 7.5 00:00 4.0
19/11 21:50 10.9 10.5 7.5 00:00 0.0
19/11 21:49 10.9 10.6 7.5 00:00 4.0
19/11 21:48 10.9 10.6 7.5 00:00 4.0
19/11 21:47 10.9 10.6 7.5 00:00 0.0
19/11 21:46 10.9 10.5 7.5 00:00 0.0
19/11 21:45 10.9 10.4 7.5 00:00 0.0
19/11 21:44 10.8 10.3 7.5 00:00 0.0
19/11 21:43 10.8 10.3 7.6 00:00 0.0
19/11 21:42 10.7 10.3 7.5 00:00 4.0
19/11 21:40 10.8 10.4 7.6 00:00 4.0
19/11 21:39 10.8 10.4 7.6 00:00 4.0
19/11 21:38 10.7 10.3 7.5 00:00 0.0
19/11 21:36 10.7 10.4 7.5 00:00 0.0
19/11 21:35 10.7 10.5 7.5 00:00 0.0
19/11 21:34 10.7 10.6 7.5 00:00 4.0
19/11 21:33 10.7 10.8 7.5 00:00 4.0
19/11 21:32 10.6 10.8 7.6 00:00 4.0
19/11 21:31 10.6 10.9 7.6 00:00 4.0
19/11 21:30 10.6 10.9 7.6 00:00 0.0
19/11 21:29 10.6 10.8 7.6 00:00 4.0
19/11 21:28 10.6 10.7 7.6 00:00 0.0
19/11 21:26 10.6 10.5 7.6 00:00 4.0
19/11 21:24 10.6 10.1 7.6 00:00 4.0
19/11 21:22 10.7 10 7.5 00:00 4.0
19/11 21:20 10.7 9.7 7.5 00:00 4.0
19/11 21:18 10.7 9.5 7.5 00:00 4.0
19/11 21:17 10.7 9.5 7.5 00:00 4.0
19/11 21:16 10.7 9.5 7.5 00:00 4.0
19/11 21:15 10.7 9.4 7.5 00:00 4.0
19/11 21:14 10.7 9.4 7.5 00:00 4.0
19/11 21:13 10.7 9.4 7.5 00:00 4.0
19/11 21:12 10.7 9.3 7.5 00:00 4.0
19/11 21:11 10.7 9.3 7.5 00:00 0.0
19/11 21:10 10.7 9.3 7.5 00:00 4.0
19/11 21:09 10.7 9.3 7.5 00:00 4.0
19/11 21:08 10.7 9.4 7.5 00:00 4.0
19/11 21:06 10.7 9.3 7.5 00:00 0.0
19/11 21:04 10.8 9.5 7.6 00:00 0.0
19/11 21:02 10.9 9.7 7.5 00:00 4.0
19/11 21:00 10.9 9.7 7.4 00:00 4.0
19/11 20:58 10.9 9.6 7.4 00:00 4.0
19/11 20:57 11.0 9.7 7.5 00:00 4.0
19/11 20:56 11.0 9.7 7.3 00:00 0.0
19/11 20:55 11.0 9.7 7.3 00:00 4.0
19/11 20:54 11.0 9.7 7.3 00:00 4.0
19/11 20:52 11.0 9.6 7.1 00:00 0.0
19/11 20:50 11.0 9.5 7.1 00:00 4.0
19/11 20:49 11.0 9.5 7.1 00:00 4.0
19/11 20:48 11.0 9.5 7.1 00:00 4.0
19/11 20:47 11.0 9.5 7.1 00:00 4.0
19/11 20:46 11.0 9.5 7.1 00:00 4.0
19/11 20:45 11.1 9.6 7.2 00:00 4.0
19/11 20:44 11.1 9.5 7.2 00:00 4.0
19/11 20:43 11.1 9.6 7 00:00 0.0
19/11 20:42 11.1 9.6 7 00:00 4.0
19/11 20:41 11.1 9.6 7 00:00 0.0
19/11 20:40 11.1 9.6 7 00:00 4.0
19/11 20:39 11.1 9.5 7.2 00:00 4.0
19/11 20:38 11.1 9.5 7.2 00:00 4.0
19/11 20:37 11.1 9.5 7 00:00 0.0
19/11 20:36 11.1 9.5 7 00:00 4.0
19/11 20:35 11.1 9.5 7 00:00 4.0
19/11 20:34 11.1 9.5 7 00:00 4.0
19/11 20:33 11.1 9.5 7 00:00 4.0
19/11 20:32 11.1 9.5 7 00:00 0.0
19/11 20:31 11.1 9.6 7 00:00 0.0
19/11 20:30 11.1 9.6 7 00:00 4.0
19/11 20:29 11.1 9.7 7 00:00 4.0
19/11 20:28 11.1 9.8 7 00:00 4.0
19/11 20:26 11.1 10 7 00:00 4.0
19/11 20:24 11.1 10.1 7 00:00 4.0
19/11 20:22 11.2 10.4 6.9 00:00 4.0
19/11 20:20 11.2 10.6 6.9 00:00 4.0
19/11 20:18 11.2 10.7 6.9 00:00 0.0
19/11 20:16 11.3 10.9 6.8 00:00 4.0
19/11 20:14 11.3 10.9 6.8 00:00 4.0
19/11 20:12 11.3 11 6.8 00:00 0.0
19/11 20:11 11.3 11 6.8 00:00 0.0
19/11 20:10 11.3 11 6.8 00:00 4.0
19/11 20:09 11.3 11 6.8 00:00 4.0
19/11 20:08 11.3 11 6.8 00:00 4.0
19/11 20:07 11.3 11.1 6.8 00:00 4.0
19/11 20:06 11.3 11.1 6.8 00:00 4.0
19/11 20:05 11.3 11.2 6.8 00:00 4.0
19/11 20:04 11.3 11.3 6.8 00:00 4.0
19/11 20:03 11.4 11.5 6.9 00:00 0.0
19/11 20:02 11.4 11.5 6.7 00:00 4.0
19/11 20:01 11.4 11.5 6.7 00:00 4.0
19/11 20:00 11.5 11.7 6.6 00:00 0.0
19/11 19:59 11.5 11.7 6.6 00:00 0.0
19/11 19:58 11.5 11.6 6.6 00:00 4.0
19/11 19:56 11.6 11.7 6.5 00:00 4.0
19/11 19:54 11.6 11.7 6.5 00:00 4.0
19/11 19:52 11.7 11.6 6.6 00:00 4.0
19/11 19:50 11.7 11.7 6.4 00:00 4.0
19/11 19:48 11.7 11.7 6.6 00:00 0.0
19/11 19:47 11.6 11.7 6.5 00:00 4.0
19/11 19:46 11.6 11.8 6.5 00:00 4.0
19/11 19:44 11.7 11.8 6.6 00:00 4.0
19/11 19:43 11.6 11.7 6.5 00:00 0.0
19/11 19:42 11.6 11.6 6.5 00:00 4.0
19/11 19:41 11.5 11.5 6.4 00:00 0.0
19/11 19:40 11.5 11.4 6.4 00:00 0.0
19/11 19:38 11.4 11.3 6.5 00:00 0.0
19/11 19:37 11.4 11.2 6.5 00:00 4.0
19/11 19:36 11.4 11.2 6.5 00:00 4.0
19/11 19:35 11.5 11.3 6.6 00:00 4.0
19/11 19:34 11.5 11.2 6.6 00:00 4.0
19/11 19:33 11.5 11.2 6.6 00:00 0.0
19/11 19:32 11.5 11.2 6.6 00:00 4.0
19/11 19:31 11.5 11.2 6.6 00:00 4.0
19/11 19:30 11.5 11.2 6.6 00:00 4.0
19/11 19:29 11.5 11.2 6.6 00:00 4.0
19/11 19:28 11.5 11.2 6.6 00:00 0.0
19/11 19:27 11.5 11.2 6.6 00:00 4.0
19/11 19:26 11.4 11.1 6.5 00:00 4.0
19/11 19:25 11.4 11.2 6.7 00:00 0.0
19/11 19:24 11.4 11.2 6.7 00:00 0.0
19/11 19:23 11.3 11.1 6.6 00:00 0.0
19/11 19:22 11.2 11 6.7 00:00 4.0
19/11 19:21 11.0 10.8 6.7 00:00 4.0
19/11 19:20 10.9 10.7 6.6 00:00 0.0
19/11 19:19 10.6 10.3 6.7 00:00 4.0
19/11 19:18 10.4 10.1 6.7 00:00 0.0
19/11 19:17 10.3 10 7.1 00:00 0.0
19/11 19:16 10.3 9.9 7.5 00:00 4.0
19/11 19:14 10.4 9.8 7.6 00:00 4.0
19/11 19:13 10.4 9.6 7.6 00:00 4.0
19/11 19:12 10.4 9.6 7.4 00:00 4.0
19/11 19:11 10.3 9.4 7.3 00:00 4.0
19/11 19:10 10.1 9.2 7.3 00:00 4.0
19/11 19:09 10.0 9.1 7.6 00:00 0.0
19/11 19:08 10.0 9.1 7.6 00:00 0.0
19/11 19:07 10.0 9 7.7 00:00 0.0
19/11 19:06 10.0 9 7.7 00:00 4.0
19/11 19:05 10.0 9 7.7 00:00 0.0
19/11 19:04 10.0 9 7.7 00:00 0.0
19/11 19:03 9.9 8.9 7.6 00:00 0.0
19/11 19:02 9.9 8.9 7.6 00:00 4.0
19/11 19:00 9.9 8.8 7.6 00:00 4.0
19/11 18:58 9.9 8.7 7.6 00:00 4.0
19/11 18:57 9.9 8.7 7.6 00:00 0.0
19/11 18:56 9.9 8.7 7.6 00:00 0.0
19/11 18:55 9.9 8.7 7.6 00:00 4.0
19/11 18:54 9.9 8.7 7.6 00:00 0.0
19/11 18:53 9.9 8.7 7.6 00:00 4.0
19/11 18:52 9.9 8.7 7.6 00:00 4.0
19/11 18:51 9.9 8.7 7.6 00:00 0.0
19/11 18:50 9.9 8.8 7.6 00:00 4.0
19/11 18:49 9.8 8.7 7.5 00:00 0.0
19/11 18:48 9.8 8.7 7.5 00:00 0.0
19/11 18:47 9.8 8.8 7.5 00:00 4.0
19/11 18:46 9.8 8.8 7.5 00:00 0.0
19/11 18:45 9.8 8.7 7.5 00:00 4.0
19/11 18:44 9.8 8.6 7.5 00:00 4.0
19/11 18:42 9.8 8.6 7.4 00:00 4.0
19/11 18:40 9.8 8.6 7.4 00:00 0.0
19/11 18:38 9.8 8.5 7.4 00:00 0.0
19/11 18:37 9.8 8.6 7.4 00:00 0.0
19/11 18:36 9.8 8.6 7.4 00:00 4.0
19/11 18:35 9.8 8.6 7.4 00:00 0.0
19/11 18:34 9.8 8.7 7.4 00:00 0.0
19/11 18:33 9.8 8.8 7.4 00:00 4.0
19/11 18:32 9.8 8.8 7.4 00:00 0.0
19/11 18:31 9.8 8.7 7.4 00:00 4.0
19/11 18:30 9.8 8.7 7.4 00:00 0.0
19/11 18:29 9.8 8.7 7.4 00:00 4.0
19/11 18:28 9.8 8.7 7.4 00:00 4.0
19/11 18:27 9.8 8.7 7.4 00:00 4.0
19/11 18:26 9.8 8.7 7.4 00:00 0.0
19/11 18:25 9.8 8.7 7.4 00:00 0.0
19/11 18:24 9.8 8.7 7.4 00:00 0.0
19/11 18:23 9.8 8.7 7.4 00:00 4.0
19/11 18:22 9.8 8.7 7.4 00:00 4.0
19/11 18:21 9.8 8.7 7.4 00:00 4.0
19/11 18:20 9.8 8.8 7.4 00:00 4.0
19/11 18:19 9.8 8.9 7.4 00:00 4.0
19/11 18:18 9.8 8.9 7.4 00:00 4.0
19/11 18:16 9.8 9 7.4 00:00 0.0
19/11 18:15 9.8 9.1 7.2 00:00 0.0
19/11 18:14 9.8 9.1 7.2 00:00 0.0
19/11 18:13 9.8 9.1 7.2 00:00 0.0
19/11 18:12 9.9 9.2 7.3 00:00 0.0
19/11 18:11 9.9 9.3 7.3 00:00 4.0
19/11 18:10 9.9 9.3 7.3 00:00 4.0
19/11 18:09 9.8 9.2 7.2 00:00 0.0
19/11 18:08 9.8 9.2 7.2 00:00 4.0
19/11 18:07 9.8 9.2 7.2 00:00 4.0
19/11 18:06 9.8 9.2 7.2 00:00 0.0
19/11 18:05 9.8 9.2 7.2 00:00 4.0
19/11 18:04 9.8 9.1 7 00:00 0.0
19/11 18:03 9.8 9.1 7 00:00 0.0
19/11 18:01 9.8 9.1 7 00:00 0.0
19/11 17:59 9.9 9.1 7.1 00:00 0.0
19/11 17:57 9.9 9 7.1 00:00 4.0
19/11 17:55 9.9 8.9 6.9 00:00 0.0
19/11 17:53 9.9 8.8 6.9 00:00 4.0
19/11 17:52 9.9 8.7 6.9 00:00 0.0
19/11 17:51 9.9 8.7 6.9 00:00 0.0
19/11 17:49 9.9 8.7 6.9 00:00 4.0
19/11 17:48 9.9 8.7 6.9 00:00 4.0
19/11 17:47 9.9 8.7 6.9 00:00 0.0
19/11 17:46 9.9 8.7 6.9 00:00 4.0
19/11 17:45 9.9 8.7 6.9 00:00 4.0
19/11 17:44 9.9 8.7 6.9 00:00 4.0
19/11 17:43 9.9 8.7 6.9 00:00 4.0
19/11 17:42 9.9 8.7 6.9 00:00 0.0
19/11 17:41 9.9 8.7 6.9 00:00 0.0
19/11 17:40 9.9 8.7 6.9 00:00 0.0
19/11 17:39 9.9 8.7 6.9 00:00 4.0
19/11 17:36 9.8 8.7 6.8 00:00 4.0
19/11 17:35 9.8 8.7 6.8 00:00 4.0
19/11 17:34 9.8 8.7 6.8 00:00 4.0
19/11 17:32 9.8 8.7 6.8 00:00 4.0
19/11 17:31 9.8 8.7 6.8 00:00 0.0
19/11 17:30 9.8 8.7 6.8 00:00 0.0
19/11 17:28 9.8 8.8 6.8 00:00 4.0
19/11 17:27 9.8 8.8 6.8 00:00 4.0
19/11 17:25 9.8 8.8 6.8 00:00 4.0
19/11 17:23 9.7 8.8 6.7 00:00 4.0
19/11 17:21 9.7 8.9 6.9 00:00 0.0
19/11 17:19 9.6 8.9 6.8 00:00 4.0
19/11 17:17 9.6 9 6.8 00:00 4.0
19/11 17:15 9.6 9.1 6.6 00:00 4.0
19/11 17:13 9.7 9.3 6.7 00:00 0.0
19/11 17:12 9.7 9.3 6.7 00:00 4.0
19/11 17:11 9.7 9.3 6.7 00:00 4.0
19/11 17:09 9.7 9.2 6.7 00:00 0.0
19/11 17:08 9.7 9.2 6.6 00:00 0.0
19/11 17:07 9.7 9.2 6.6 00:00 0.0
19/11 17:06 9.7 9.1 6.6 00:00 4.0
19/11 17:05 9.8 9.1 6.7 00:00 0.0
19/11 17:04 9.8 9.1 6.7 00:00 4.0
19/11 17:03 9.8 9.1 6.5 00:00 4.0
19/11 17:01 9.8 9.1 6.5 00:00 4.0
19/11 16:59 9.8 9.2 6.5 00:00 0.0
19/11 16:58 9.8 9.2 6.5 00:00 0.0
19/11 16:57 9.8 9.3 6.7 00:00 0.0
19/11 16:56 9.8 9.3 6.5 00:00 4.0
19/11 16:55 9.8 9.4 6.5 00:00 4.0
19/11 16:54 9.8 9.4 6.5 00:00 4.0
19/11 16:53 9.8 9.5 6.5 00:00 4.0
19/11 16:52 9.8 9.6 6.5 00:00 0.0
19/11 16:51 9.8 9.7 6.5 00:00 4.0
19/11 16:50 9.8 9.8 6.5 00:00 0.0
19/11 16:49 9.8 9.8 6.5 00:00 0.0
19/11 16:48 9.8 9.8 6.5 00:00 0.0
19/11 16:47 9.8 9.8 6.5 00:00 0.0
19/11 16:46 9.9 9.9 6.6 00:00 0.0
19/11 16:45 9.9 9.9 6.4 00:00 0.0
19/11 16:44 9.9 9.9 6.4 00:00 0.0
19/11 16:43 9.9 9.9 6.4 00:00 0.0
19/11 16:42 9.9 9.9 6.4 00:00 0.0
19/11 16:41 9.9 9.9 6.4 00:00 0.0
19/11 16:40 9.9 9.9 6.4 00:00 0.0
19/11 16:39 9.9 9.9 6.4 00:00 0.0
19/11 16:38 9.9 9.7 6.4 00:00 0.0
19/11 16:37 9.9 9.6 6.4 00:00 0.0
19/11 16:36 9.9 9.6 6.4 00:00 0.0
19/11 16:35 9.9 9.6 6.4 00:00 0.0
19/11 16:34 10.0 9.7 6.5 00:00 0.0
19/11 16:33 10.0 9.7 6.5 00:00 0.0
19/11 16:30 10.0 9.6 6.5 00:00 0.0
19/11 16:29 10.0 9.6 6.5 00:00 0.0
19/11 16:27 9.9 9.6 6.4 00:00 0.0
19/11 16:25 9.9 9.7 6.4 00:00 0.0
19/11 16:23 9.9 9.7 6.4 00:00 0.0
19/11 16:21 9.9 9.8 6.4 00:00 0.0
19/11 16:19 9.9 10 6.4 00:00 0.0
19/11 16:17 9.9 10 6.4 00:00 0.0
19/11 16:15 9.9 10.1 6.4 00:00 0.0
19/11 16:13 9.9 10.1 6.4 00:00 0.0
19/11 16:11 9.8 9.8 6.3 00:00 0.0
19/11 16:09 9.8 9.6 6.3 00:00 0.0
19/11 16:08 9.8 9.5 6.3 00:00 0.0
19/11 16:07 9.8 9.5 6.3 00:00 0.0
19/11 16:06 9.8 9.4 6.3 00:00 0.0
19/11 16:05 9.8 9.4 6.3 00:00 0.0
19/11 16:04 9.7 9.2 6.2 00:00 0.0
19/11 16:03 9.7 9.1 6.2 00:00 0.0
19/11 16:02 9.7 9 6.2 00:00 4.0
19/11 16:01 9.7 9 6.2 00:00 4.0
19/11 16:00 9.7 9 6.2 00:00 4.0
19/11 15:59 9.7 9 6.2 00:00 4.0
19/11 15:57 9.7 9 6.2 00:00 4.0
19/11 15:55 9.7 9.1 6.2 00:00 4.0
19/11 15:53 9.7 9.2 6 00:00 4.0
19/11 15:52 9.8 9.3 6.1 00:00 4.0
19/11 15:51 9.8 9.4 6.1 00:00 4.0
19/11 15:49 9.8 9.6 6.1 00:00 4.0
19/11 15:48 9.9 9.7 6.2 00:00 4.0
19/11 15:47 9.9 9.8 6 00:00 6.0
19/11 15:46 9.9 9.9 6 00:00 6.0
19/11 15:45 9.9 9.9 6 00:00 6.0
19/11 15:43 9.9 9.9 6.2 00:00 4.0
19/11 15:42 9.9 9.9 6.2 00:00 6.0
19/11 15:41 9.9 9.9 6.2 00:00 6.0
19/11 15:40 9.8 9.7 6.1 00:00 4.0
19/11 15:39 9.8 9.7 6.1 00:00 4.0
19/11 15:38 9.8 9.6 6.1 00:00 4.0
19/11 15:37 9.8 9.6 6.1 00:00 6.0
19/11 15:36 9.8 9.5 6.1 00:00 6.0
19/11 15:35 9.7 9.4 6 00:00 6.0
19/11 15:34 9.7 9.4 6 00:00 6.0
19/11 15:33 9.7 9.4 6 00:00 6.0
19/11 15:32 9.7 9.4 6 00:00 6.0
19/11 15:31 9.7 9.4 6 00:00 6.0
19/11 15:30 9.7 9.4 6 00:00 6.0
19/11 15:29 9.7 9.5 6 00:00 8.0
19/11 15:28 9.7 9.5 6 00:00 8.0
19/11 15:27 9.7 9.6 6 00:00 8.0
19/11 15:26 9.7 9.6 5.8 00:00 8.0
19/11 15:25 9.7 9.6 5.8 00:00 8.0
19/11 15:24 9.7 9.6 5.8 00:00 10.0
19/11 15:23 9.7 9.6 5.8 00:00 10.0
19/11 15:21 9.7 9.5 5.8 00:00 10.0
19/11 15:19 9.7 9.5 5.6 00:00 10.0
19/11 15:18 9.7 9.5 5.6 00:00 12.0
19/11 15:17 9.7 9.4 5.6 00:00 12.0
19/11 15:16 9.6 9.3 5.5 00:00 12.0
19/11 15:15 9.6 9.3 5.5 00:00 14.0
19/11 15:14 9.6 9.4 5.5 00:00 14.0
19/11 15:13 9.6 9.4 5.5 00:00 14.0
19/11 15:12 9.6 9.4 5.5 00:00 14.0
19/11 15:11 9.6 9.5 5.5 00:00 14.0
19/11 15:10 9.6 9.5 5.5 00:00 14.0
19/11 15:09 9.6 9.5 5.5 00:00 16.0
19/11 15:08 9.6 9.5 5.3 00:00 14.0
19/11 15:07 9.6 9.5 5.3 00:00 14.0
19/11 15:06 9.6 9.5 5.5 00:00 14.0
19/11 15:05 9.6 9.5 5.3 00:00 14.0
19/11 15:04 9.5 9.4 5.2 00:00 14.0
19/11 15:03 9.5 9.3 5.2 00:00 14.0
19/11 15:02 9.5 9.3 5.2 00:00 14.0
19/11 15:01 9.5 9.2 5.2 00:00 16.0
19/11 15:00 9.5 9.2 5.2 00:00 16.0
19/11 14:59 9.5 9.2 5.2 00:00 16.0
19/11 14:58 9.5 9.2 5.2 00:00 16.0
19/11 14:56 9.4 9 5.1 00:00 14.0
19/11 14:54 9.4 8.9 5 00:00 14.0
19/11 14:53 9.4 8.9 5 00:00 14.0
19/11 14:52 9.4 8.9 5 00:00 12.0
19/11 14:50 9.3 8.8 4.9 00:00 12.0
19/11 14:49 9.3 8.7 4.9 00:00 12.0
19/11 14:48 9.3 8.7 4.7 00:00 12.0
19/11 14:46 9.3 8.8 4.9 00:00 12.0
19/11 14:45 9.2 8.6 4.6 00:00 14.0
19/11 14:44 9.2 8.6 4.6 00:00 14.0
19/11 14:42 9.2 8.6 4.6 00:00 16.0
19/11 14:40 9.2 8.6 4.6 00:00 14.0
19/11 14:39 9.2 8.5 4.6 00:00 14.0
19/11 14:38 9.2 8.5 4.6 00:00 14.0
19/11 14:36 9.2 8.4 4.6 00:00 14.0
19/11 14:35 9.1 8.3 4.5 00:00 14.0
19/11 14:34 9.1 8.4 4.5 00:00 14.0
19/11 14:33 9.1 8.4 4.5 00:00 14.0
19/11 14:32 9.1 8.5 4.5 00:00 14.0
19/11 14:31 9.1 8.6 4.3 00:00 14.0
19/11 14:30 9.2 8.7 4.4 00:00 14.0
19/11 14:29 9.2 8.8 4.4 00:00 14.0
19/11 14:28 9.2 8.8 4.4 00:00 14.0
19/11 14:26 9.2 9.1 4.4 00:00 14.0
19/11 14:25 9.2 9.2 4.4 00:00 14.0
19/11 14:24 9.2 9.1 4.4 00:00 14.0
19/11 14:23 9.2 9.1 4.2 00:00 14.0
19/11 14:21 9.2 9.1 4.2 00:00 16.0
19/11 14:20 9.2 9 4.2 00:00 16.0
19/11 14:19 9.2 9 4.2 00:00 16.0
19/11 14:17 9.2 9.1 4.2 00:00 16.0
19/11 14:15 9.1 8.9 3.9 00:00 16.0
19/11 14:13 9.1 9 3.9 00:00 16.0
19/11 14:11 9.2 9.3 4 00:00 16.0
19/11 14:09 9.2 9.6 4 00:00 16.0
19/11 14:07 9.2 9.8 3.7 00:00 16.0
19/11 14:05 9.2 10 3.7 00:00 16.0
19/11 14:03 9.2 10 3.7 00:00 18.0
19/11 14:01 9.1 9.7 3.7 00:00 18.0
19/11 13:59 9.1 9.5 3.7 00:00 16.0
19/11 13:57 9.1 9.3 3.7 00:00 16.0
19/11 13:55 9.1 9.1 3.7 00:00 18.0
19/11 13:53 9.2 9.2 3.3 00:00 20.0
19/11 13:51 9.3 9.4 3.4 00:00 22.0
19/11 13:49 9.3 9.4 3.4 00:00 24.0
19/11 13:47 9.3 9.5 3.4 00:00 22.0
19/11 13:45 9.3 9.4 3.2 00:00 24.0
19/11 13:43 9.3 9.3 3.2 00:00 22.0
19/11 13:42 9.3 9.3 3.2 00:00 22.0
19/11 13:41 9.3 9.2 3.2 00:00 24.0
19/11 13:40 9.3 9.2 3.2 00:00 24.0
19/11 13:39 9.3 9.3 3.2 00:00 24.0
19/11 13:38 9.3 9.3 3.2 00:00 24.0
19/11 13:37 9.2 9.1 3.1 00:00 22.0
19/11 13:35 9.2 9 3.1 00:00 20.0
19/11 13:34 9.2 9 3.1 00:00 20.0
19/11 13:31 9.2 9 3.1 00:00 20.0
19/11 13:30 9.2 9.1 3.1 00:00 20.0
19/11 13:29 9.2 9.1 3.1 00:00 20.0
19/11 13:27 9.2 9.1 3.1 00:00 20.0
19/11 13:25 9.2 9.1 3.1 00:00 20.0
19/11 13:23 9.1 8.9 3 00:00 20.0
19/11 13:21 9.2 9 3.1 00:00 20.0
19/11 13:19 9.1 9 3 00:00 22.0
19/11 13:17 9.1 8.9 3 00:00 22.0
19/11 13:15 9.1 9 3.2 00:00 22.0
19/11 13:14 9.1 9 3.2 00:00 22.0
19/11 13:13 9.1 9 3.2 00:00 22.0
19/11 13:12 9.1 9 3 00:00 22.0
19/11 13:11 9.1 9 3.2 00:00 24.0
19/11 13:10 9.1 9 3.2 00:00 24.0
19/11 13:09 9.1 9 3.2 00:00 26.0
19/11 13:08 9.1 8.8 3.2 00:00 26.0
19/11 13:07 9.1 8.8 3 00:00 26.0
19/11 13:06 9.1 8.8 3 00:00 28.0
19/11 13:04 9.0 8.7 2.9 00:00 28.0
19/11 13:03 9.0 8.6 2.9 00:00 28.0
19/11 13:02 9.0 8.6 2.9 00:00 28.0
19/11 13:01 9.0 8.5 2.9 00:00 26.0
19/11 13:00 9.0 8.5 2.9 00:00 26.0
19/11 12:59 9.0 8.5 2.9 00:00 26.0
19/11 12:58 9.0 8.5 2.7 00:00 26.0
19/11 12:57 9.0 8.6 2.9 00:00 28.0
19/11 12:55 9.0 8.6 2.9 00:00 28.0
19/11 12:53 9.0 8.6 2.7 00:00 30.0
19/11 12:52 9.0 8.6 2.7 00:00 30.0
19/11 12:51 9.0 8.7 2.7 00:00 30.0
19/11 12:50 9.0 8.7 2.7 00:00 28.0
19/11 12:49 9.0 8.7 2.7 00:00 28.0
19/11 12:48 9.0 8.7 2.5 00:00 28.0
19/11 12:46 9.0 8.8 2.5 00:00 28.0
19/11 12:44 8.9 8.7 2.4 00:00 28.0
19/11 12:42 8.9 8.6 2.4 00:00 30.0
19/11 12:41 8.9 8.7 2.4 00:00 28.0
19/11 12:40 8.9 8.6 2.4 00:00 28.0
19/11 12:39 8.9 8.6 2.4 00:00 28.0
19/11 12:37 8.9 8.5 2.4 00:00 26.0
19/11 12:36 8.9 8.5 2.4 00:00 24.0
19/11 12:35 8.9 8.4 2.4 00:00 24.0
19/11 12:34 8.8 8.4 2.3 00:00 22.0
19/11 12:33 8.8 8.4 2.3 00:00 22.0
19/11 12:31 8.8 8.4 2.1 00:00 24.0
19/11 12:28 8.8 8.4 2.1 00:00 28.0
19/11 12:27 8.8 8.3 2.1 00:00 28.0
19/11 12:26 8.8 8.3 2.1 00:00 30.0
19/11 12:24 8.8 8.3 2.1 00:00 32.0
19/11 12:23 8.8 8.2 2.1 00:00 34.0
19/11 12:22 8.8 8.1 2.1 00:00 34.0
19/11 12:21 8.7 8 2 00:00 34.0
19/11 12:20 8.7 8 2 00:00 32.0
19/11 12:19 8.7 8 1.7 00:00 32.0
19/11 12:18 8.7 8 1.7 00:00 32.0
19/11 12:17 8.7 8.1 1.7 00:00 32.0
19/11 12:16 8.7 8.2 1.7 00:00 32.0
19/11 12:15 8.7 8.3 1.7 00:00 32.0
19/11 12:14 8.7 8.3 1.7 00:00 34.0
19/11 12:13 8.8 8.4 1.6 00:00 36.0
19/11 12:12 8.8 8.4 1.8 00:00 34.0
19/11 12:10 8.8 8.4 1.8 00:00 32.0
19/11 12:08 8.8 8.4 1.6 00:00 30.0
19/11 12:06 8.7 8.2 1.5 00:00 28.0
19/11 12:04 8.7 8.2 1.3 00:00 26.0
19/11 12:02 8.8 8.3 1.4 00:00 26.0
19/11 12:00 8.8 8.2 1.4 00:00 24.0
19/11 11:58 8.7 8.1 1.5 00:00 24.0
19/11 11:56 8.7 8 1.3 00:00 28.0
19/11 11:55 8.7 8 1.5 00:00 28.0
19/11 11:54 8.7 8.1 1.5 00:00 30.0
19/11 11:53 8.7 8.1 1.3 00:00 30.0
19/11 11:51 8.7 8.2 1.5 00:00 34.0
19/11 11:50 8.7 8.2 1.3 00:00 36.0
19/11 11:49 8.8 8.4 1.4 00:00 38.0
19/11 11:48 8.8 8.5 1.1 00:00 40.0
19/11 11:47 8.8 8.5 1.4 00:00 40.0
19/11 11:45 8.8 8.7 1.1 00:00 44.0
19/11 11:43 8.8 8.7 1.4 00:00 46.0
19/11 11:41 8.8 8.7 1.4 00:00 46.0
19/11 11:39 8.7 8.5 1.5 00:00 40.0
19/11 11:37 8.7 8.5 1.5 00:00 32.0
19/11 11:35 8.7 8.5 1.5 00:00 26.0
19/11 11:33 8.7 8.5 1.3 00:00 24.0
19/11 11:31 8.7 8.4 1.7 00:00 24.0
19/11 11:29 8.7 8.3 1.3 00:00 24.0
19/11 11:28 8.7 8.3 1.5 00:00 26.0
19/11 11:26 8.7 8.3 2 00:00 30.0
19/11 11:25 8.7 8.2 2 00:00 32.0
19/11 11:24 8.6 8 1.7 00:00 36.0
19/11 11:23 8.6 8 1.7 00:00 40.0
19/11 11:21 8.6 8 1.4 00:00 46.0
19/11 11:20 8.5 7.9 1.3 00:00 44.0
19/11 11:19 8.5 7.9 1.6 00:00 42.0
19/11 11:17 8.5 7.9 1.6 00:00 38.0
19/11 11:15 8.5 7.9 1.8 00:00 34.0
19/11 11:13 8.4 7.8 1.9 00:00 24.0
19/11 11:12 8.4 7.9 1.9 00:00 20.0
19/11 11:10 8.4 8 1.7 00:00 20.0
19/11 11:09 8.4 8 1.9 00:00 20.0
19/11 11:06 8.4 8.1 2.1 00:00 24.0
19/11 11:04 8.4 8.2 1.9 00:00 32.0
19/11 11:02 8.4 8.2 1.9 00:00 36.0
19/11 11:00 8.4 8.1 1.7 00:00 36.0
19/11 10:58 8.4 8.1 1.5 00:00 36.0
19/11 10:56 8.3 8.1 1.6 00:00 38.0
19/11 10:55 8.3 8.2 1.4 00:00 42.0
19/11 10:54 8.3 8.3 1.4 00:00 44.0
19/11 10:52 8.3 8.4 1.4 00:00 48.0
19/11 10:51 8.3 8.5 1.4 00:00 48.0
19/11 10:50 8.3 8.6 1.4 00:00 48.0
19/11 10:49 8.3 8.8 1.6 00:00 46.0
19/11 10:48 8.3 8.9 1.6 00:00 44.0
19/11 10:46 8.3 8.9 1.6 00:00 42.0
19/11 10:45 8.4 9 1.7 00:00 40.0
19/11 10:43 8.3 8.8 1.8 00:00 42.0
19/11 10:42 8.3 8.8 1.8 00:00 44.0
19/11 10:41 8.3 8.8 1.6 00:00 44.0
19/11 10:39 8.2 8.6 1.7 00:00 42.0
19/11 10:38 8.2 8.5 1.7 00:00 42.0
19/11 10:37 8.2 8.4 1.5 00:00 42.0
19/11 10:35 8.1 8.3 1.6 00:00 44.0
19/11 10:33 8.1 8.3 1.6 00:00 42.0
19/11 10:31 8.0 8.2 1.5 00:00 46.0
19/11 10:30 8.0 8.2 1.5 00:00 48.0
19/11 10:29 8.0 8.2 1.5 00:00 50.0
19/11 10:28 8.0 8.2 1.5 00:00 54.0
19/11 10:26 8.0 8.2 2 00:00 54.0
19/11 10:24 7.9 8.1 1.9 00:00 48.0
19/11 10:22 7.8 8.1 1.6 00:00 46.0
19/11 10:20 7.8 8.2 1.6 00:00 44.0
19/11 10:18 7.8 8.2 1.6 00:00 38.0
19/11 10:16 7.8 8.2 1.6 00:00 40.0
19/11 10:15 7.9 8.3 1.7 00:00 40.0
19/11 10:13 7.9 8.3 1.9 00:00 38.0
19/11 10:12 7.9 8.2 1.9 00:00 42.0
19/11 10:10 7.8 8.2 1.6 00:00 48.0
19/11 10:09 7.8 8.2 1.8 00:00 52.0
19/11 10:08 7.8 8.3 1.8 00:00 56.0
19/11 10:07 7.8 8.4 1.8 00:00 52.0
19/11 10:06 7.8 8.4 1.8 00:00 48.0
19/11 10:05 7.7 8.4 1.7 00:00 58.0
19/11 10:03 7.7 8.5 1.5 00:00 48.0
19/11 10:01 7.7 8.9 1.7 00:00 38.0
19/11 10:00 7.7 8.9 1.7 00:00 36.0
19/11 09:59 7.7 9.1 1.7 00:00 32.0
19/11 09:58 7.7 9.3 1.9 00:00 32.0
19/11 09:57 7.7 9.5 1.9 00:00 30.0
19/11 09:56 7.7 9.6 1.7 00:00 30.0
19/11 09:55 7.7 9.7 1.7 00:00 30.0
19/11 09:54 7.7 9.9 1.7 00:00 28.0
19/11 09:53 7.7 9.9 1.7 00:00 26.0
19/11 09:51 7.8 10.1 2.2 00:00 26.0
19/11 09:50 7.8 10.1 2.2 00:00 26.0
19/11 09:49 7.7 9.9 2.1 00:00 24.0
19/11 09:48 7.7 9.7 1.9 00:00 24.0
19/11 09:47 7.7 9.7 1.9 00:00 24.0
19/11 09:46 7.7 9.7 2.3 00:00 24.0
19/11 09:45 7.6 9.5 2 00:00 22.0
19/11 09:44 7.6 9.5 2 00:00 22.0
19/11 09:43 7.6 9.5 2 00:00 22.0
19/11 09:42 7.6 9.5 2 00:00 22.0
19/11 09:41 7.6 9.4 2 00:00 22.0
19/11 09:39 7.6 9.4 1.8 00:00 22.0
19/11 09:38 7.6 9.5 1.6 00:00 20.0
19/11 09:36 7.5 9.3 1.5 00:00 20.0
19/11 09:35 7.6 9.2 1.8 00:00 20.0
19/11 09:34 7.6 9.2 1.8 00:00 20.0
19/11 09:33 7.6 9.1 1.8 00:00 20.0
19/11 09:31 7.6 9 2 00:00 20.0
19/11 09:30 7.6 9 2 00:00 22.0
19/11 09:29 7.6 8.9 2 00:00 22.0
19/11 09:28 7.6 9 2.2 00:00 22.0
19/11 09:27 7.6 9 2 00:00 22.0
19/11 09:25 7.6 9.1 2.2 00:00 22.0
19/11 09:23 7.6 9.4 2.2 00:00 24.0
19/11 09:21 7.6 9.6 2 00:00 24.0
19/11 09:19 7.7 9.9 2.1 00:00 24.0
19/11 09:18 7.7 10 1.9 00:00 24.0
19/11 09:16 7.7 10 1.9 00:00 28.0
19/11 09:15 7.7 10 1.9 00:00 28.0
19/11 09:14 7.7 10 1.9 00:00 28.0
19/11 09:13 7.7 10 1.7 00:00 28.0
19/11 09:12 7.7 9.9 1.7 00:00 28.0
19/11 09:10 7.7 9.9 1.7 00:00 28.0
19/11 09:08 7.7 9.9 1.7 00:00 28.0
19/11 09:06 7.7 9.9 1.7 00:00 30.0
19/11 09:04 7.6 9.8 1.6 00:00 32.0
19/11 09:02 7.6 9.8 1.8 00:00 32.0
19/11 09:01 7.6 9.8 1.8 00:00 30.0
19/11 09:00 7.6 10 1.8 00:00 24.0
19/11 08:58 7.6 10.1 1.6 00:00 26.0
19/11 08:56 7.6 10.4 2 00:00 34.0
19/11 08:54 7.5 9.9 2.1 00:00 36.0
19/11 08:52 7.4 9.4 1.8 00:00 24.0
19/11 08:50 7.2 8.8 1.8 00:00 28.0
19/11 08:48 6.9 8.2 1.7 00:00 30.0
19/11 08:47 6.8 7.8 1.6 00:00 26.0
19/11 08:45 6.8 7.6 1.6 00:00 22.0
19/11 08:44 6.8 7.6 1.6 00:00 22.0
19/11 08:43 6.8 7.6 1.8 00:00 22.0
19/11 08:41 6.7 7.5 2 00:00 22.0
19/11 08:40 6.7 7.5 1.8 00:00 22.0
19/11 08:38 6.6 7.4 1.7 00:00 20.0
19/11 08:37 6.6 7.4 1.9 00:00 18.0
19/11 08:36 6.6 7.5 1.9 00:00 16.0
19/11 08:35 6.6 7.6 1.9 00:00 16.0
19/11 08:34 6.5 7.6 1.8 00:00 14.0
19/11 08:33 6.5 7.6 1.8 00:00 12.0
19/11 08:32 6.5 7.7 1.8 00:00 12.0
19/11 08:31 6.4 7.6 1.7 00:00 12.0
19/11 08:30 6.4 7.7 1.7 00:00 12.0
19/11 08:29 6.4 7.7 1.9 00:00 12.0
19/11 08:28 6.3 7.7 2 00:00 12.0
19/11 08:26 6.3 7.8 2.1 00:00 10.0
19/11 08:24 6.3 7.9 2.3 00:00 10.0
19/11 08:22 6.3 8 2.5 00:00 8.0
19/11 08:20 6.2 7.9 2.4 00:00 8.0
19/11 08:19 6.2 7.9 2.4 00:00 8.0
19/11 08:18 6.2 7.8 2.4 00:00 8.0
19/11 08:16 6.3 7.8 2.7 00:00 6.0
19/11 08:15 6.3 7.8 2.7 00:00 6.0
19/11 08:13 6.3 7.6 2.7 00:00 6.0
19/11 08:12 6.3 7.5 2.7 00:00 4.0
19/11 08:11 6.3 7.4 2.9 00:00 4.0
19/11 08:10 6.3 7.2 2.7 00:00 4.0
19/11 08:09 6.3 7.1 2.7 00:00 4.0
19/11 08:08 6.3 7 2.7 00:00 4.0
19/11 08:07 6.4 7.1 3 00:00 4.0
19/11 08:06 6.4 7 3 00:00 4.0
19/11 08:05 6.4 6.9 3 00:00 4.0
19/11 08:04 6.4 6.8 3 00:00 4.0
19/11 08:03 6.5 6.9 3.1 00:00 0.0
19/11 08:02 6.5 6.9 3.1 00:00 0.0
19/11 08:00 6.5 6.9 3.1 00:00 0.0
19/11 07:58 6.5 7.1 2.9 00:00 0.0
19/11 07:57 6.5 7.2 2.9 00:00 0.0
19/11 07:56 6.5 7.3 2.9 00:00 0.0
19/11 07:55 6.5 7.4 2.9 00:00 0.0
19/11 07:54 6.5 7.6 2.9 00:00 0.0
19/11 07:53 6.5 7.7 2.9 00:00 0.0
19/11 07:52 6.5 7.8 2.9 00:00 0.0
19/11 07:51 6.5 7.9 2.9 00:00 0.0
19/11 07:50 6.5 7.9 2.9 00:00 0.0
19/11 07:49 6.5 7.9 2.9 00:00 0.0
19/11 07:48 6.5 7.9 2.9 00:00 0.0
19/11 07:47 6.5 7.9 2.9 00:00 0.0
19/11 07:46 6.5 7.8 2.9 00:00 0.0
19/11 07:45 6.5 7.7 2.9 00:00 0.0
19/11 07:44 6.5 7.6 2.9 00:00 0.0
19/11 07:43 6.5 7.5 2.9 00:00 0.0
19/11 07:42 6.5 7.4 2.9 00:00 0.0
19/11 07:40 6.5 7.2 2.9 00:00 0.0
19/11 07:38 6.5 7 2.9 00:00 0.0
19/11 07:36 6.5 6.8 2.9 00:00 0.0
19/11 07:35 6.5 6.7 2.9 00:00 0.0
19/11 07:34 6.5 6.7 2.9 00:00 0.0
19/11 07:32 6.5 6.7 2.9 00:00 0.0
19/11 07:30 6.5 6.8 2.9 00:00 0.0
19/11 07:28 6.5 6.9 2.7 00:00 0.0
19/11 07:27 6.4 6.8 2.6 00:00 0.0
19/11 07:26 6.4 6.9 2.6 00:00 0.0
19/11 07:25 6.4 6.9 2.6 00:00 0.0
19/11 07:24 6.4 6.9 2.6 00:00 0.0
19/11 07:23 6.4 6.8 2.6 00:00 0.0
19/11 07:22 6.4 6.7 2.6 00:00 0.0
19/11 07:21 6.4 6.7 2.6 00:00 0.0
19/11 07:20 6.4 6.7 2.6 00:00 0.0
19/11 07:19 6.4 6.6 2.6 00:00 0.0
19/11 07:18 6.4 6.6 2.6 00:00 0.0
19/11 07:17 6.4 6.6 2.6 00:00 0.0
19/11 07:16 6.4 6.6 2.6 00:00 0.0
19/11 07:15 6.4 6.7 2.6 00:00 0.0
19/11 07:14 6.4 6.8 2.4 00:00 0.0
19/11 07:13 6.4 6.8 2.6 00:00 0.0
19/11 07:12 6.4 6.9 2.6 00:00 0.0
19/11 07:10 6.4 6.9 2.4 00:00 0.0
19/11 07:08 6.4 7 2.4 00:00 0.0
19/11 07:06 6.4 7 2.6 00:00 0.0
19/11 07:04 6.4 6.8 2.4 00:00 0.0
19/11 07:02 6.4 6.7 2.4 00:00 0.0
19/11 07:00 6.4 6.7 2.4 00:00 0.0
19/11 06:58 6.5 6.8 2.5 00:00 0.0
19/11 06:57 6.4 6.7 2.4 00:00 0.0
19/11 06:56 6.4 6.7 2.2 00:00 0.0
19/11 06:54 6.4 6.9 2.2 00:00 0.0
19/11 06:52 6.4 7 2.2 00:00 0.0
19/11 06:50 6.4 7 2.2 00:00 0.0
19/11 06:48 6.4 7.1 2.4 00:00 0.0



    Load Time 0.068567 seconds